010  
ASUS42 KCAE 272310  
RWRCAE  
REGIONAL WEATHER ROUNDUP  
NATIONAL WEATHER SERVICE COLUMBIA SC  
700 PM EDT WED OCT 27 2021  
 
NOTE: "FAIR" INDICATES FEW OR NO CLOUDS BELOW 12,000 FEET WITH NO  
SIGNIFICANT WEATHER AND/OR S TO VISIBILITY
.  
 
NOT ALL STATIONS ARE QUALITY CONTROLLED BY THE NATIONAL  
WEATHER SERVICE. USE DATA WITH CAUTION...ESPECIALLY  
DEWPOINT OBSERVATIONS.  
 
SCZ001>059-115-116-135>137-GAZ040-063>065-077-280000-   
..UPSTATE SOUTH CAROLINA
 
 
 
CITY SKY/WX TMP DP RH WIND PRES REMARKS
 
ANDERSON CLEAR 57 45 64 CALM 29.87R  
LIBERTY CLEAR 56 50 80 CALM 29.87R  
SPARTANBURG CLEAR 57 46 67 CALM 29.86R  
CLEMSON CLEAR 58 43 57 CALM 29.87R  
GREENVILLE CLEAR 63 40 42 W3 29.87R  
GREENWOOD CLEAR 54 46 74 CALM 29.88R  
GREER CLEAR 60 40 47 CALM 29.87R  
ROCK HILL CLEAR 58 47 66 CALM 29.86S  
LAURENS CLEAR 55 46 71 CALM 29.87R  
 
   
..CENTRAL SOUTH CAROLINA
 
 
 
CITY SKY/WX TMP DP RH WIND PRES REMARKS
 
COLUMBIA APT PTCLDY 62 45 53 CALM 29.85R  
COLUMBIA OWENS CLEAR 61 45 55 CALM 29.86S  
MCENTIRE ANGB PTCLDY 57 45 63 CALM 29.84S  
ORANGEBURG CLEAR 61 44 53 NE3 29.87R  
SUMTER SHAW CLEAR 61 44 53 CALM 29.84S  
NEWBERRY CLEAR 55 46 71 S3 29.89S  
BARNWELL FAIR 63 39 42 CALM 29.86R  
MANNING FAIR 57 43 58 CALM 29.86S  
CAMDEN FAIR 61 46 59 CALM 29.86S  
LANCASTER CLEAR 63 45 51 CALM 29.86S  
WINNSBORO CLEAR 57 45 62 CALM 29.86S  
 
   
..EASTERN AND COASTAL SOUTH CAROLINA
 
 
 
CITY SKY/WX TMP DP RH WIND PRES REMARKS
 
MYRTLE BEACH CLEAR 62 47 57 W5 29.86S  
N MYRTLE BCH CLEAR 60 49 66 CALM 29.85R  
CONWAY FAIR 55 50 82 CALM 29.86S  
MARION FAIR 59 46 63 W3 29.86S  
HARTSVILLE FAIR 59 46 63 CALM 29.86S HAZE  
FLORENCE CLEAR 62 46 55 CALM 29.86S  
DARLINGTON PTCLDY 58 52 80 CALM 29.87R  
CHARLESTON APT PTCLDY 60 45 57 CALM 29.86R  
MOUNT PLEASANT FAIR 59 52 77 CALM 29.86R  
WALTERBORO CLEAR 57 50 77 CALM 29.87S  
BEAUFORT CLEAR 62 52 69 CALM 29.86S  
HILTON HEAD CLEAR 59 54 82 CALM 29.87S  
 
   
..EASTERN GEORGIA
 
 
 
CITY SKY/WX TMP DP RH WIND PRES REMARKS
 
AUGUSTA BUSH F CLEAR 59 48 67 CALM 29.85R  
AUGUSTA DANIEL CLEAR 65 43 44 N6 29.86S  
THOMSON CLEAR 59 50 73 CALM 29.86S  
WASHINGTON FAIR 57 51 78 CALM 29.86S  
CLAXTON FAIR 60 54 80 CALM 29.87R  
SYLVANIA CLEAR 58 50 73 CALM 29.86S  
STATESBORO PTCLDY 56 49 77 CALM 29.86R  
SAVANNAH PTCLDY 63 48 58 N5 29.86R  
 
   
..SOUTHERN NORTH CAROLINA
 
 
 
CITY SKY/WX TMP DP RH WIND PRES REMARKS
 
CHARLOTTE PTCLDY 60 46 59 CALM 29.87R  
MONROE CLEAR 61 44 53 CALM 29.86R  
WADESBORO CLEAR 57 50 76 CALM 29.86R  
ROCKINGHAM CLEAR 58 53 81 CALM 29.86S  
RUTHERFORDTON CLEAR 63 43 48 CALM 29.87S  
ASHEVILLE CLEAR 59 38 45 SE3 29.89R  
 

 
 
 
CLICK HERE TO GO TO PREVIOUS BULLETINS.

The Nexlab SC Page
The Nexlab GA Page Main Text Page